Dewpoint
26 26 26 27 30 25 24 23 22 22 24 25 23 24 26 26 21 20 28 30 34 42 42 44 47 47 47 47 48 48 48 48 48 48 47 47 47 48 48 49 49 50 50 51 53 54 55 55 56 56 57 58 59 61 63 65 65 64 65 65 65 65 66 66 67 67 68 67 67 67 67 67 67 66 65 65 65 65 66 66 65 64 64 64 64 66 67
25 26 27 27 25 26 26 26 25 24 24 23 23 23 23 22 25 27 26 27 41 42 42 43 46 48 47 48 49 49 49 48 49 48 48 47 47 48 48 48 48 51 51 51 51 53 54 55 55 55 57 57 57 58 59 61 63 66 66 65 65 65 65 66 67 68 68 68 68 68 68 68 68 67 66 66 65 65 65 65 66 67 66 66 64 64 65
24 26 31 26 27 27 24 25 25 25 24 23 23 22 23 31 27 26 22 30 41 44 44 44 45 47 46 46 45 47 49 49 48 48 48 49 48 48 49 49 48 49 51 52 52 52 53 54 54 55 56 56 57 57 58 59 61 62 64 67 66 65 65 66 67 68 68 68 69 68 68 68 68 68 67 66 66 66 65 65 65 66 66 65 65 65 65
21 25 28 27 29 28 25 25 28 27 24 25 29 24 29 26 26 34 33 32 37 43 44 46 44 45 44 43 44 44 47 48 48 48 48 49 49 48 48 50 49 49 49 50 52 52 52 54 54 54 55 56 56 56 57 58 60 61 64 66 66 67 66 67 67 68 68 69 69 69 68 68 68 68 67 67 67 66 65 64 65 64 64 64 65 64 65
21 23 28 27 25 18 25 31 34 39 38 39 39 40 44 43 41 34 30 29 41 43 45 43 43 43 44 43 43 43 44 46 46 47 47 47 48 49 49 50 50 49 50 50 50 51 53 54 54 53 54 55 56 57 58 59 61 62 63 65 68 68 67 67 68 68 68 68 68 69 69 68 68 68 68 67 66 66 65 65 64 65 64 63 63 63 63
21 25 27 28 16 10 15 27 33 40 35 38 35 33 38 42 42 40 40 40 43 43 43 43 42 42 45 44 45 44 43 44 45 46 47 47 46 48 48 49 50 51 51 51 51 51 52 53 53 53 55 54 54 56 58 59 62 62 63 63 67 69 68 68 68 68 68 68 68 68 69 69 68 68 67 67 66 65 65 66 65 64 63 63 63 64 63
22 25 26 24 12 15 25 28 34 36 35 40 35 38 41 42 42 42 42 42 42 43 43 44 43 43 44 45 44 43 43 43 44 45 46 47 47 47 46 46 48 51 52 52 52 52 53 54 53 54 53 53 54 55 57 58 60 61 61 62 65 69 70 69 69 69 69 68 68 68 68 69 69 68 68 67 67 66 65 65 65 65 64 63 63 63 62
24 23 20 5 11 25 29 28 36 42 39 39 38 36 38 41 42 42 41 42 42 42 42 42 44 43 42 45 45 43 43 43 42 43 45 46 47 46 46 46 47 48 50 52 52 53 55 53 53 53 54 53 54 54 55 58 61 61 61 62 63 65 69 72 69 69 69 68 68 68 68 68 68 68 68 68 67 67 66 65 65 65 65 64 63 63 63
19 22 18 18 26 26 28 34 38 38 35 36 35 30 33 39 41 42 41 41 41 41 42 42 42 41 42 43 44 43 42 42 42 42 45 46 47 47 47 46 47 48 48 51 53 54 53 53 53 54 55 55 54 54 55 56 60 61 61 62 62 63 64 65 68 71 69 69 69 69 69 68 68 68 68 68 67 68 66 66 65 65 64 64 65 64 63
26 23 21 15 20 15 23 34 40 41 41 41 40 37 35 40 40 42 41 41 41 41 41 42 41 40 41 42 44 44 41 41 41 42 43 44 46 47 47 48 47 47 47 50 52 53 52 52 53 54 55 55 54 55 55 56 56 60 60 60 61 62 62 63 64 65 68 72 70 70 69 69 69 68 68 68 67 68 66 65 65 64 64 65 65 65 64
25 24 20 16 13 19 28 34 38 40 41 41 41 35 32 39 39 40 42 40 41 41 41 42 40 38 35 37 43 42 41 41 42 41 41 42 43 45 46 46 45 44 47 50 50 51 51 51 53 54 55 55 54 54 55 55 56 57 58 59 60 60 61 62 63 64 65 68 71 71 70 70 69 69 69 69 69 69 67 67 66 66 66 65 65 65 64
28 24 21 19 23 19 29 34 38 39 40 42 35 24 27 39 40 40 41 41 41 41 42 43 39 39 36 36 39 41 42 42 42 42 42 42 42 43 44 44 45 46 49 48 47 49 49 50 52 53 54 54 55 54 54 55 55 56 57 58 60 59 60 61 63 64 64 66 68 71 73 72 71 70 70 70 70 69 69 68 68 67 67 67 66 65 65
31 29 26 27 29 33 37 37 39 39 41 36 28 24 37 41 40 41 41 42 42 41 40 41 39 40 41 41 42 42 42 41 41 41 42 43 43 43 42 43 48 45 45 45 46 47 49 51 49 52 54 54 54 54 55 54 55 57 58 58 59 61 60 61 62 64 64 65 66 68 70 73 72 72 71 71 71 70 70 69 69 69 68 68 67 67 66
25 27 27 28 29 31 36 38 39 41 34 26 26 35 39 39 39 41 42 41 41 41 40 40 40 40 41 44 42 41 41 41 41 41 41 42 42 42 45 46 46 44 43 45 46 46 47 48 49 50 53 54 55 54 53 53 55 55 57 59 60 59 60 61 63 64 65 66 66 67 69 71 73 73 73 73 72 72 71 71 71 70 70 69 69 68 68
32 31 28 26 19 26 37 38 37 40 31 32 36 38 40 41 41 41 41 40 40 40 39 39 40 40 40 40 40 41 41 41 41 41 41 42 41 41 42 42 43 44 43 43 44 45 45 46 47 49 50 53 54 55 54 54 55 56 57 57 58 59 61 63 65 66 68 68 68 68 69 71 71 71 73 73 73 73 72 72 72 71 71 71 70 69 70
24 27 25 24 28 34 38 35 30 36 39 39 40 38 37 40 40 40 39 40 40 40 39 39 39 40 40 41 41 41 41 41 41 41 42 42 42 41 41 41 42 45 44 44 44 44 44 46 47 49 51 53 54 54 54 55 55 56 57 57 58 57 59 63 65 67 67 68 68 68 69 71 72 72 72 72 73 73 73 72 72 71 71 71 71 70 69
27 25 29 33 37 38 38 37 36 37 39 41 40 39 38 38 39 40 39 39 39 40 40 40 40 40 41 40 41 41 41 41 41 41 41 41 42 41 42 42 44 45 43 43 43 43 44 45 47 49 50 52 54 54 54 55 55 56 57 57 57 57 58 61 63 65 67 68 68 69 70 71 72 73 72 72 72 73 73 72 72 72 71 71 71 70 70
33 34 32 35 36 37 38 41 41 39 40 41 41 39 38 39 39 40 39 39 39 40 41 40 40 40 41 40 40 40 40 40 41 43 42 42 42 42 42 42 43 44 44 43 43 43 44 46 47 50 50 51 52 54 54 55 55 56 57 58 57 57 58 60 62 64 65 67 69 70 71 72 73 74 74 72 71 72 72 72 72 72 72 71 71 71 70
27 25 32 34 34 35 37 37 40 41 41 39 40 39 39 39 40 40 40 40 40 40 41 41 40 40 40 40 40 40 40 40 40 40 41 42 42 42 42 43 45 44 44 43 43 44 44 45 46 48 49 51 53 54 55 54 54 55 56 58 59 58 58 59 61 63 64 65 68 70 71 71 71 72 72 73 72 71 71 71 71 71 71 71 71 70 70
29 29 30 33 36 37 38 38 37 37 36 37 40 40 39 40 40 41 40 41 41 41 41 41 41 40 40 39 39 39 39 40 40 40 41 42 42 43 43 43 45 44 44 43 43 44 44 45 46 48 49 50 52 54 54 54 53 55 56 57 57 57 57 59 60 62 63 65 66 68 70 70 70 71 71 72 72 72 71 71 71 71 71 71 70 70 70
33 33 34 34 35 35 35 36 37 37 36 36 37 39 40 40 40 40 41 42 41 41 41 41 40 40 39 39 39 39 39 39 40 41 41 42 42 43 43 43 45 44 44 45 44 44 44 45 46 47 49 50 52 54 54 54 54 54 55 56 56 57 57 58 59 62 63 64 66 67 69 70 70 71 71 72 72 72 72 72 71 71 71 71 71 71 71
29 30 31 32 28 28 30 33 35 36 37 37 37 38 39 39 39 40 40 40 41 41 41 41 40 40 39 39 39 39 40 40 41 41 42 42 42 43 43 43 43 43 45 45 45 45 45 46 47 48 49 51 53 53 53 52 53 54 55 55 55 56 57 58 60 61 63 64 65 67 68 69 69 70 68 63 67 72 72 67 64 63 63 70 71 71 71
28 32 33 34 33 32 32 33 34 37 38 39 38 38 38 38 39 40 40 40 40 40 41 41 40 40 40 40 40 40 40 41 41 42 42 42 42 42 43 42 42 43 43 46 46 46 47 48 49 50 51 52 53 53 53 53 53 55 55 56 56 56 58 59 60 62 63 64 65 67 68 69 69 69 70 70 57 56 61 66 61 58 56 57 59 62 70
33 33 33 35 34 33 34 35 36 36 38 38 37 38 39 39 40 40 41 41 41 40 40 40 40 40 40 41 41 40 41 41 41 41 41 41 41 42 43 43 43 44 44 45 46 47 48 49 49 50 50 51 52 52 53 53 54 55 55 56 57 57 58 60 61 62 63 64 65 67 68 69 69 69 70 70 71 60 55 57 57 55 53 53 54 55 57
34 35 35 35 35 35 35 36 37 38 39 41 39 39 39 39 40 42 41 41 42 41 40 40 40 41 41 41 41 41 40 41 42 42 44 46 45 45 45 45 46 46 46 47 48 48 48 48 49 50 50 51 52 52 53 53 54 55 55 56 57 58 59 60 62 63 64 65 66 67 68 69 69 69 69 70 70 71 70 55 53 54 53 52 51 51 52
36 36 37 37 37 37 38 38 38 39 40 42 42 42 45 46 45 46 43 42 41 40 40 40 40 41 41 41 41 41 41 41 44 44 43 43 43 44 44 44 45 46 46 46 47 47 48 49 50 50 51 51 53 54 54 54 55 56 56 56 57 58 59 61 62 63 65 66 67 68 69 69 69 69 69 70 70 71 71 71 69 61 54 51 49 49 50
38 38 37 35 34 35 38 36 36 38 40 41 41 41 41 41 45 44 42 41 41 41 41 41 41 41 41 42 43 42 42 42 42 42 42 43 43 43 43 44 45 46 47 47 47 48 50 50 51 51 51 52 53 54 55 55 56 56 56 57 58 61 64 65 65 65 66 66 67 67 68 68 69 69 69 69 70 71 71 71 71 71 71 70 58 49 58
38 38 36 35 34 34 35 37 38 39 40 40 41 41 41 40 40 40 40 40 40 40 40 40 40 41 41 41 41 40 40 40 40 41 41 42 42 43 43 44 44 45 45 47 47 48 49 50 50 50 51 53 54 55 56 56 56 56 57 57 58 60 62 64 64 64 64 64 65 65 65 66 67 68 68 69 69 70 70 71 71 72 71 71 72 61 51
37 38 38 36 36 37 38 39 40 40 40 41 43 41 40 40 39 39 39 39 40 40 40 40 41 41 41 40 40 40 40 40 41 41 42 43 44 44 44 44 45 46 46 47 47 48 48 49 50 50 51 53 55 56 57 57 56 57 57 58 59 61 62 63 63 63 63 63 63 64 64 64 65 67 68 68 69 70 70 71 71 72 72 72 70 68 61
38 38 39 38 39 39 38 38 38 39 39 40 40 40 40 39 39 39 39 39 40 39 40 40 40 40 41 40 41 41 41 41 41 42 42 43 44 45 45 45 46 46 46 47 47 48 49 50 51 52 52 53 55 56 56 57 57 57 58 59 60 61 62 62 62 62 61 61 62 62 63 65 66 67 67 68 68 69 69 70 71 71 72 72 68 71 70
38 40 39 39 39 39 38 38 38 38 39 39 39 39 39 39 39 39 39 40 40 40 41 41 41 41 41 41 41 41 42 42 42 43 43 44 44 45 45 46 46 47 47 48 49 50 51 51 52 53 54 55 56 56 56 56 58 58 59 60 61 60 59 59 59 60 60 60 61 62 63 64 66 66 67 67 67 68 69 70 70 71 71 72 72 70 70
38 38 38 37 37 37 38 38 38 38 38 39 38 39 39 39 39 39 40 41 41 42 42 42 42 41 41 41 41 42 43 43 44 44 44 44 45 45 46 46 46 48 47 48 48 50 51 52 53 54 55 55 56 56 57 57 58 58 59 60 60 60 59 58 60 60 60 60 61 62 63 64 65 67 67 67 67 68 68 69 69 70 71 71 71 71 71
37 36 35 35 38 37 36 36 37 37 38 38 39 39 40 40 40 41 41 42 42 43 42 42 42 42 42 42 43 44 45 46 46 46 45 45 45 45 46 46 47 47 47 48 49 50 52 53 54 55 54 55 55 56 57 57 58 58 59 59 59 59 59 58 58 59 59 60 60 60 61 62 63 64 65 67 67 67 68 68 69 69 69 70 71 72 70
37 36 36 35 35 35 34 36 37 37 38 39 39 40 40 41 42 42 42 43 43 42 42 42 43 43 43 44 45 46 46 45 45 45 46 46 46 46 47 47 48 48 48 49 50 51 53 54 54 54 54 55 56 56 57 57 58 59 58 57 57 57 58 58 58 58 57 58 58 59 59 59 61 62 63 64 66 67 67 67 67 68 69 69 70 70 62
38 37 37 37 38 37 37 37 37 38 39 39 39 41 42 42 42 42 44 43 42 42 43 44 44 43 44 45 45 45 45 45 46 45 47 48 48 47 48 48 48 49 49 50 51 52 52 52 53 53 55 56 56 56 56 57 57 57 56 56 56 56 57 57 56 56 55 56 56 56 57 58 59 59 61 61 62 63 65 67 67 68 68 68 68 64 60
39 38 40 40 39 39 40 39 39 39 40 39 40 41 42 42 43 43 42 42 43 44 44 44 44 44 45 44 44 44 45 46 46 46 48 49 49 50 49 48 48 49 49 50 51 51 51 52 54 54 55 55 55 55 56 57 58 56 55 55 55 55 55 55 55 54 54 54 54 55 55 56 57 58 58 59 60 61 63 65 66 67 67 68 67 64 60
41 39 39 39 39 39 39 39 40 40 41 41 42 42 43 43 43 43 44 43 43 44 45 44 44 44 44 44 45 45 45 46 47 46 48 48 50 51 50 50 50 50 50 49 49 51 52 53 53 53 54 54 54 54 55 56 56 54 54 53 53 53 53 53 52 52 52 53 53 53 54 54 54 55 55 56 56 57 59 61 63 64 63 62 61 61 60
40 39 38 38 38 38 39 40 41 42 42 43 43 45 45 44 43 43 43 43 44 44 45 45 45 45 45 45 44 44 44 44 45 46 46 47 48 47 47 48 48 49 48 48 50 51 52 53 52 52 52 53 53 54 55 55 54 51 51 51 52 52 52 51 51 51 51 51 52 51 52 52 52 53 53 54 54 55 57 58 59 59 59 59 59 58 57
38 40 40 40 40 40 41 42 41 42 43 42 42 42 43 45 45 44 43 43 44 46 45 44 44 44 44 43 43 43 43 44 45 45 45 46 48 47 46 47 47 48 49 50 50 51 52 51 51 51 52 52 52 53 54 55 53 51 50 50 50 51 51 50 50 50 51 50 50 51 51 51 51 51 52 52 53 53 54 54 54 54 54 54 54 54 53
37 39 39 40 40 41 41 41 41 41 42 42 42 42 42 44 43 43 43 43 44 45 45 44 43 44 42 41 42 42 43 44 44 45 45 46 46 46 47 47 48 49 49 49 50 51 51 51 51 51 51 51 52 53 52 53 52 51 49 50 49 49 50 50 50 49 49 49 49 50 49 50 50 50 50 51 51 51 51 51 50 50 49 49 48 49 48
37 38 39 40 41 42 41 40 40 40 40 42 42 43 43 43 43 43 43 44 45 45 44 44 43 43 41 40 40 41 42 43 43 43 45 45 45 45 45 44 47 49 50 49 50 49 50 50 51 51 50 51 52 52 51 51 50 49 49 49 49 48 48 49 49 49 49 48 49 48 48 49 49 49 49 49 49 49 49 49 48 48 47 47 46 46 47
37 39 39 40 40 40 41 40 41 41 41 40 42 44 44 44 44 44 44 45 45 44 42 42 42 41 41 40 40 40 40 41 42 43 44 45 44 44 44 44 47 49 48 48 48 48 48 49 50 50 51 51 51 50 50 51 49 49 48 48 48 48 48 48 48 48 48 48 48 48 48 48 48 48 48 47 47 47 47 47 47 47 46 46 46 45 45
39 39 39 39 40 41 40 40 40 41 42 42 42 42 44 44 44 44 44 44 43 43 42 41 41 42 42 41 40 39 39 40 41 41 43 45 46 46 45 46 47 49 47 48 48 47 48 48 49 50 50 50 50 49 49 49 49 48 48 48 48 47 47 47 47 47 47 47 47 48 48 48 47 47 47 47 47 47 46 46 46 45 45 45 45 45 45
41 39 39 40 41 43 42 42 42 42 41 41 42 43 43 44 44 44 44 43 42 42 41 41 41 41 41 41 41 40 39 40 40 41 42 42 44 45 47 47 47 48 47 48 48 48 48 47 48 48 48 48 48 48 48 48 48 47 47 47 47 47 47 47 47 47 46 46 46 47 47 47 47 47 46 46 46 45 45 45 44 43 44 43 43 43 43
41 40 40 40 42 44 42 41 40 39 41 43 43 43 44 44 44 44 44 43 42 42 42 42 42 42 42 42 41 42 42 41 41 41 40 40 41 42 46 46 48 47 47 47 47 47 47 47 47 47 47 47 47 47 47 47 47 47 47 46 46 46 47 47 47 47 47 47 46 46 47 47 47 47 46 46 45 45 44 43 43 43 43 42 42 42 42
42 41 42 46 42 41 40 39 40 43 42 42 42 44 45 44 44 44 44 43 42 43 43 43 43 42 42 42 42 42 42 42 42 42 43 42 42 43 46 45 47 46 46 46 47 47 47 46 45 45 46 46 46 46 46 46 46 46 46 46 46 46 45 45 45 47 47 46 46 45 45 46 46 46 46 46 45 45 45 45 44 43 43 43 42 42 42
42 41 42 42 41 42 43 42 43 41 40 41 42 43 44 44 44 43 43 43 43 43 43 44 43 44 44 43 43 42 41 41 42 42 43 43 44 44 44 44 44 45 46 46 46 46 47 47 46 45 45 46 45 45 45 45 45 45 45 45 45 45 45 45 45 45 45 45 45 46 46 45 45 45 46 45 44 43 44 43 42 43 44 44 44 43 42
42 42 41 41 40 41 42 42 40 38 38 39 41 44 44 44 43 43 43 43 44 44 44 44 45 44 44 43 44 44 43 42 40 40 43 43 42 42 43 43 44 43 44 44 45 45 45 44 44 45 45 45 45 45 45 45 45 45 44 44 44 44 44 44 44 44 45 46 45 44 44 44 44 44 44 44 44 44 44 43 43 43 43 43 43 42 42
43 42 42 42 41 41 41 42 43 43 41 43 44 44 45 45 44 43 43 42 43 43 44 44 44 44 44 44 44 45 45 45 43 41 44 44 43 43 43 42 42 42 42 43 43 44 45 43 43 44 45 44 44 44 44 44 45 45 44 44 44 44 44 44 44 44 44 44 44 45 45 44 44 44 44 45 45 44 44 44 44 43 43 43 43 43 42
43 43 42 41 40 41 42 41 40 40 42 44 43 44 45 44 43 42 44 43 42 42 43 43 44 44 44 44 45 46 45 45 45 45 45 44 43 40 42 42 40 40 40 40 41 43 43 44 44 44 44 44 44 44 44 43 44 44 44 44 44 43 44 44 43 43 44 44 44 45 44 45 45 45 45 45 44 44 44 44 44 43 43 44 43 43 42
44 43 41 43 42 42 39 40 41 42 42 44 43 45 45 44 44 43 43 43 42 42 42 43 44 44 44 45 45 45 45 45 45 43 45 44 43 42 41 42 42 40 39 40 39 41 42 43 43 43 43 43 43 44 43 43 43 44 43 44 43 44 44 44 44 44 44 44 44 44 43 43 43 43 43 44 44 44 44 43 44 43 43 43 42 42 42
43 42 41 41 40 40 41 42 43 43 44 45 45 46 45 45 44 44 43 42 43 42 42 43 42 43 45 45 46 45 46 45 45 44 45 45 44 44 44 43 43 43 40 39 39 40 42 43 44 43 43 43 43 43 43 43 43 43 43 44 43 43 44 43 43 43 43 43 43 43 43 43 42 41 42 42 43 43 43 43 43 43 43 43 43 43 43